Zurück zum Katalog

SL-12 R/B

AUX MOTOR

AktivHEO
NORAD 15265·ROCKET BODY·🇷🇺 Russia

Gestartet Sep 4, 1984 von Baikonur Cosmodrome

Loading…

Nächste Überflüge (nächste 24 Stunden)

TLE

AktuellSource: Space-Track

Epoche: Sep 14, 2026, 14:19 UTC

1 15265U 84095G   26257.59670935  .00030655  00000-0  25562-2 0  9992
2 15265  51.9284 171.3923 4402174  53.5504 339.5523  6.69299805691583

Verfolge SL-12 R/B in Echtzeit mit AllMySat

Download on the App Store